[[{"header":{"parameterUnit":"m.s-1","parameterCategory":2,"la1":30.2991,"la2":30.254,"lo1":-89.0895,"lo2":-89.0444,"dy":0.0017,"dx":0.0017,"nx":28,"ny":28,"refTime":"2024-09-27T09:00:00:Z","depth":"0","parameterNumber":2,"parameterNumberName":"U-component_of_CURRENTS"},"data":[0,0,0,0,0,0,0,0,0,0,0,0,0,0,0,0,0,0,0,0,0,0,0,0,0,0,0,0,0,0,0,0,0,0,0,0,0,0,0,0,0,0,0,0,0,0,0,0,0,0,0,0,0,0,0,0,0,0,0.2847,0.2847,0,0.2878,0.2878,0.2879,0.2871,0.2871,0.287,0.287,0.2866,0.2867,0.2867,0,0,0,0,0,0,0,0,0,0,0,0,0,0.2793,0.2794,0.2847,0.2847,0.2848,0.2878,0.2878,0.2879,0.2871,0.2871,0.287,0.287,0.2866,0.2867,0.2867,0,0,0,0,0,0,0,0,0,0,0,0,0,0.2817,0.2794,0.2847,0.285,0.2851,0.2878,0.2878,0.2879,0.2871,0.2871,0.287,0.287,0.2866,0.2866,0.2867,0.2879,0,0,0.2868,0.2868,0,0,0,0,0,0,0,0,0.2815,0.2818,0.2849,0.285,0.2851,0.2873,0.2858,0.2878,0.2871,0.286,0.287,0.2869,0.2867,0.2868,0.2871,0.2879,0.2879,0.2868,0.2868,0.2868,0.2868,0,0,0,0,0,0,0,0.2814,0.2817,0.2856,0.285,0.2851,0.2855,0.2857,0.2862,0.2864,0.2861,0.2862,0.287,0.2867,0.2871,0.2871,0.2879,0.2868,0.2868,0.2868,0.2869,0.2922,0.2923,0,0,0,0,0,0,0.2816,0.2816,0.2855,0.2858,0.2835,0.2856,0.2859,0.2864,0.2864,0.2865,0.287,0.2869,0.2871,0.2871,0.2871,0.2904,0.2868,0.2869,0.2869,0.2921,0.2922,0.2923,0,0,0,0,0,0,0.2814,0.2819,0.2854,0.284,0.2845,0.2858,0.2864,0.2865,0.2873,0.2872,0.2871,0.2878,0.287,0.287,0.2887,0.2903,0.2869,0.2869,0.2919,0.2921,0.2923,0.2958,0,0,0,0,0,0,0.2813,0.2818,0.2822,0.284,0.2846,0.2876,0.2865,0.2866,0.288,0.2879,0.2878,0.2877,0.287,0.2887,0.2888,0.2902,0.2869,0.2918,0.292,0.2922,0.2955,0.2961,0.2965,0,0,0,0,0,0.281,0.2818,0.2822,0.2827,0.2851,0.2877,0.288,0.2886,0.2881,0.2889,0.2893,0.2877,0.2902,0.2889,0.2889,0.2904,0.2917,0.2919,0.2922,0.2953,0.296,0.2965,0,0,0,0,0,0,0.2794,0.2819,0.2824,0.2837,0.2859,0.2877,0.2887,0.2892,0.2901,0.29,0.2893,0.2893,0.2917,0.2908,0.2894,0.2928,0.2907,0.291,0.293,0.2936,0.2941,0.2955,0.287,0,0,0,0,0,0.2795,0.2808,0.2833,0.2845,0.2857,0.2874,0.2885,0.2892,0.2905,0.2908,0.2909,0.2914,0.2929,0.293,0.2941,0.2956,0.2965,0.2967,0.2972,0.2976,0.2989,0.3012,0.3021,0.2932,0.2932,0.2932,0,0,0.2791,0.2809,0.2814,0.2843,0.2859,0.2884,0.2878,0.2901,0.2921,0.2907,0.293,0.2936,0.294,0.2962,0.2971,0.2954,0.3009,0.298,0.2983,0.2994,0.3016,0.3025,0.3032,0.2934,0.2934,0.2934,0,0,0.2793,0.2808,0.282,0.2844,0.2876,0.2894,0.2903,0.2927,0.2936,0.296,0.2962,0.2981,0.2989,0.3003,0.3009,0.305,0.3041,0.3048,0.3076,0.3098,0.3106,0.3112,0.3144,0.3153,0.3042,0.3042,0.3042,0,0.2788,0.2806,0.2828,0.2852,0.2872,0.29,0.2921,0.2944,0.297,0.2981,0.297,0.3011,0.3012,0.3051,0.3066,0.3061,0.3075,0.3049,0.3104,0.3111,0.3117,0.3148,0.3158,0.3044,0.3044,0.3044,0.3044,0,0.2801,0.282,0.2833,0.2873,0.2899,0.2924,0.2962,0.2985,0.2996,0.3016,0.3054,0.3065,0.3086,0.3092,0.309,0.3139,0.3136,0.3113,0.3087,0.3128,0.3159,0.3168,0.3047,0.3046,0.3046,0.3045,0,0,0.2778,0.2829,0.2833,0.285,0.291,0.2929,0.2975,0.3017,0.3053,0.3071,0.3111,0.3138,0.3146,0.3155,0.316,0.3182,0.3239,0.3167,0.3168,0.3197,0.33,0.3299,0.3309,0.3221,0.3223,0.3224,0.3308,0,0.2779,0.2814,0.2844,0.2882,0.2905,0.2949,0.2992,0.3037,0.3078,0.3129,0.3148,0.3196,0.317,0.3192,0.3208,0.3244,0.3264,0.3219,0.3259,0.3261,0.3252,0.332,0.3323,0.3398,0.3317,0.3318,0.3319,0,0.278,0.2804,0.2832,0.2886,0.29,0.2931,0.3003,0.3048,0.3132,0.3168,0.3213,0.3243,0.3298,0.3265,0.3327,0.3299,0.3304,0.3319,0.3321,0.3316,0.3278,0.3342,0.3418,0.3422,0.3333,0.3332,0.3331,0,0.2745,0.2795,0.281,0.2831,0.2901,0.2919,0.2962,0.305,0.3101,0.3206,0.3251,0.3314,0.3354,0.3375,0.34,0.337,0.3467,0.3422,0.3425,0.3425,0.3436,0.3434,0.3517,0.3459,0.3458,0.3458,0.3458,0,0.2735,0.2748,0.2793,0.2805,0.2836,0.2896,0.2952,0.3017,0.3122,0.3184,0.3264,0.3329,0.3382,0.3436,0.344,0.3478,0.3493,0.3459,0.3455,0.3449,0.3447,0.3454,0.3405,0.3461,0.3461,0.346,0.346,0,0.2695,0.2725,0.2744,0.28,0.2819,0.284,0.2934,0.2981,0.3095,0.3182,0.3219,0.3356,0.3446,0.3494,0.3559,0.3533,0.3509,0.3567,0.3567,0.3561,0.355,0.3501,0.3346,0.3266,0.3594,0.3595,0.3596,0,0.2676,0.2681,0.2723,0.2728,0.2749,0.2795,0.283,0.2951,0.3011,0.3186,0.3219,0.3363,0.3457,0.3583,0.3611,0.3656,0.3535,0.3644,0.3579,0.358,0.3523,0.3305,0.3232,0.3615,0.3615,0.3616,0.3616,0,0.2636,0.2646,0.2658,0.2673,0.2693,0.2724,0.2785,0.2832,0.2971,0.3072,0.321,0.3319,0.349,0.3591,0.3673,0.3677,0.3536,0.3652,0.3659,0.3561,0.3323,0.3236,0.3532,0.3621,0.362,0.362,0.362,0.3619,0.2595,0.2586,0.2597,0.2603,0.2621,0.2634,0.2639,0.273,0.2826,0.2957,0.3122,0.3275,0.3553,0.3704,0.3667,0.3705,0.3545,0.3676,0.3625,0.341,0.33,0.3611,0.3681,0.3681,0.3681,0.3681,0.3681,0,0.2534,0.2526,0.2528,0.2522,0.2503,0.2547,0.2588,0.2591,0.2662,0.2857,0.2997,0.3319,0.3513,0.3666,0.3828,0.3746,0.3517,0.3669,0.3411,0.3346,0.3684,0.3662,0.3724,0.3724,0.3724,0.3724,0.3724,0.3724,0.2499,0.2467,0.2463,0.2404,0.2396,0.235,0.2351,0.2389,0.2504,0.2689,0.2876,0.3064,0.3487,0.3814,0.3862,0.3775,0.3526,0.3376,0.3284,0.3629,0.3627,0.3624,0.3598,0.3646,0.3645,0.2884,0.2879,0.2875]},{"header":{"parameterUnit":"m.s-1","parameterCategory":2,"la1":30.2991,"la2":30.254,"lo1":-89.0895,"lo2":-89.0444,"dy":0.0017,"dx":0.0017,"nx":28,"ny":28,"refTime":"2024-09-27T09:00:00:Z","depth":"0","parameterNumber":3,"parameterNumberName":"V-component_of_CURRENTS"},"data":[0,0,0,0,0,0,0,0,0,0,0,0,0,0,0,0,0,0,0,0,0,0,0,0,0,0,0,0,0,0,0,0,0,0,0,0,0,0,0,0,0,0,0,0,0,0,0,0,0,0,0,0,0,0,0,0,0,0,0.0325,0.0325,0,0.0273,0.0272,0.0272,0.0229,0.0229,0.0229,0.0228,0.015,0.0148,0.0146,0,0,0,0,0,0,0,0,0,0,0,0,0,0.0329,0.0329,0.0325,0.0325,0.0325,0.0273,0.0272,0.0272,0.0229,0.0229,0.0228,0.0228,0.015,0.0148,0.0146,0,0,0,0,0,0,0,0,0,0,0,0,0,0.0305,0.0329,0.0326,0.0299,0.0296,0.0274,0.0272,0.0271,0.0229,0.0229,0.0228,0.0228,0.0151,0.0149,0.0146,0.0136,0,0,0.0137,0.0136,0,0,0,0,0,0,0,0,0.0307,0.0305,0.0303,0.0301,0.0297,0.0259,0.0245,0.0226,0.0229,0.0252,0.0228,0.0228,0.0186,0.018,0.0168,0.0133,0.0129,0.0137,0.0135,0.0134,0.0133,0,0,0,0,0,0,0,0.0308,0.0306,0.0303,0.0303,0.0299,0.0269,0.0265,0.0241,0.022,0.025,0.0248,0.0245,0.0183,0.0171,0.0166,0.0128,0.0137,0.0135,0.0133,0.0132,0.0078,0.0078,0,0,0,0,0,0,0.0323,0.0309,0.0304,0.0301,0.0303,0.027,0.0266,0.027,0.022,0.0213,0.0246,0.0243,0.0176,0.017,0.0163,0.0164,0.0134,0.0132,0.013,0.0077,0.0078,0.0078,0,0,0,0,0,0,0.0323,0.0323,0.0307,0.0305,0.0301,0.0271,0.0275,0.0269,0.0261,0.0218,0.0209,0.0244,0.0176,0.0167,0.0149,0.016,0.013,0.0128,0.0077,0.0078,0.0078,0.0155,0,0,0,0,0,0,0.0323,0.0324,0.0329,0.0306,0.0302,0.0305,0.0276,0.0269,0.026,0.0257,0.0213,0.0205,0.0175,0.0154,0.0146,0.0155,0.0126,0.0077,0.0077,0.0078,0.0152,0.0158,0.0163,0,0,0,0,0,0.0324,0.0342,0.033,0.0329,0.0311,0.0306,0.0301,0.0275,0.0261,0.0264,0.0234,0.0207,0.0151,0.0152,0.0143,0.0152,0.0077,0.0077,0.0078,0.015,0.0157,0.0163,0,0,0,0,0,0,0.0346,0.0339,0.0325,0.0339,0.0326,0.03,0.03,0.0283,0.026,0.0256,0.0213,0.0203,0.019,0.016,0.0162,0.0136,0.0108,0.0107,0.0166,0.0172,0.0177,0.0196,0.0123,0,0,0,0,0,0.0354,0.0364,0.0348,0.0358,0.0355,0.0327,0.0321,0.0306,0.0285,0.0275,0.0244,0.021,0.0184,0.0171,0.0142,0.0132,0.0096,0.0129,0.0134,0.0139,0.0148,0.0104,0.0106,0.008,0.008,0.008,0,0,0.0364,0.0362,0.0366,0.0363,0.0349,0.0359,0.0322,0.0322,0.0327,0.027,0.0266,0.0229,0.0185,0.0173,0.0163,0.015,0.0127,0.014,0.0145,0.015,0.0104,0.0107,0.0109,0.008,0.008,0.008,0,0,0.0396,0.0389,0.0408,0.0405,0.0395,0.0383,0.0388,0.0367,0.0354,0.0345,0.0304,0.0277,0.0239,0.021,0.019,0.0208,0.0157,0.0195,0.0238,0.0196,0.0198,0.0199,0.0157,0.0154,0.0198,0.0198,0.0198,0,0.0405,0.0432,0.0412,0.043,0.0438,0.0402,0.0428,0.041,0.0384,0.0379,0.0355,0.0296,0.0258,0.0241,0.0245,0.0221,0.0187,0.0221,0.0204,0.0204,0.0204,0.0161,0.0156,0.0202,0.0201,0.0201,0.02,0,0.0453,0.0472,0.0486,0.05,0.0503,0.0521,0.0501,0.0495,0.0474,0.0454,0.043,0.0372,0.0338,0.0317,0.0287,0.027,0.0242,0.0217,0.0192,0.0212,0.0164,0.0158,0.0207,0.0206,0.0205,0.0204,0,0,0.0481,0.0515,0.0518,0.0542,0.0546,0.0557,0.0566,0.0568,0.0579,0.0531,0.0536,0.0476,0.0438,0.0413,0.0362,0.0321,0.0289,0.0276,0.0272,0.0243,0.0193,0.0185,0.0177,0.026,0.0259,0.0259,0.016,0,0.0525,0.0586,0.0587,0.0642,0.0673,0.0652,0.0666,0.0657,0.064,0.0631,0.0559,0.0542,0.0476,0.0462,0.041,0.0324,0.0277,0.0318,0.0171,0.0167,0.0164,0.0172,0.0207,0.0124,0.0154,0.0153,0.0152,0,0.0571,0.061,0.0677,0.0724,0.0735,0.0756,0.0781,0.0792,0.0764,0.0749,0.0709,0.0651,0.0587,0.0526,0.0384,0.0413,0.0313,0.0236,0.0229,0.0193,0.0148,0.0107,0.0111,-0.0029,0.0143,0.0143,0.0144,0,0.061,0.0671,0.0733,0.0749,0.0791,0.0811,0.083,0.0826,0.0856,0.0827,0.0836,0.074,0.0703,0.0565,0.0406,0.0393,0.0245,0.0204,0.0098,0.0096,0.0083,0.0082,-0.0056,0.01,0.01,0.01,0.0101,0,0.0661,0.0707,0.0756,0.0791,0.0863,0.0866,0.0935,0.0934,0.0953,0.1,0.0903,0.0912,0.0711,0.0601,0.0438,0.026,0.0266,0.011,0.0073,0.0111,0.0113,-0.0045,-0.0151,0.0097,0.0097,0.0098,0.0099,0,0.0691,0.0724,0.0801,0.0861,0.0886,0.0936,0.1021,0.1072,0.1072,0.1127,0.1123,0.1042,0.0903,0.0693,0.0474,0.0319,0.005,0.0071,0.0131,0.0103,-0.0125,-0.0228,-0.0403,-0.0497,-0.0065,-0.0065,-0.0066,0,0.0714,0.0756,0.0855,0.0912,0.0944,0.1025,0.1089,0.1129,0.1198,0.1216,0.1253,0.1138,0.1095,0.0772,0.0471,0.0185,0.0025,0.0022,0.0001,-0.0128,-0.0271,-0.0316,-0.0385,0.0006,0.0006,0.0006,0.0006,0,0.0758,0.079,0.0856,0.0978,0.106,0.1167,0.1262,0.134,0.1389,0.1444,0.1496,0.1463,0.115,0.0903,0.0501,0.0281,-0.0076,0.0013,-0.0139,-0.0241,-0.028,-0.0389,0.0057,0.0006,0.0006,0.0006,0.0006,0.0006,0.0786,0.0842,0.0936,0.1052,0.1154,0.1294,0.1405,0.1519,0.1653,0.1774,0.1711,0.1752,0.1356,0.0826,0.0465,-0.0078,-0.0103,-0.0208,-0.0328,-0.0362,-0.0437,0.0014,-0.0064,-0.0065,-0.0065,-0.0065,-0.0066,0,0.0823,0.0897,0.1008,0.1154,0.1282,0.1331,0.1514,0.165,0.1833,0.1977,0.2049,0.1973,0.1439,0.0889,0.0135,-0.0294,-0.0468,-0.0527,-0.0588,-0.0651,-0.0259,-0.0238,-0.0333,-0.0332,-0.0332,-0.0332,-0.0332,-0.0332,0.0846,0.0953,0.1019,0.1234,0.1347,0.1544,0.1665,0.1867,0.2038,0.231,0.2446,0.2503,0.219,0.0692,-0.0279,-0.0562,-0.0879,-0.0945,-0.1115,-0.0845,-0.0824,-0.0804,-0.0806,-0.1018,-0.1019,-0.1415,-0.142,-0.1423]}],[{"header":{"parameterUnit":"m.s-1","parameterCategory":2,"la1":30.2991,"la2":30.254,"lo1":-89.0895,"lo2":-89.0444,"dy":0.0017,"dx":0.0017,"nx":28,"ny":28,"refTime":"2024-09-27T09:00:00:Z","depth":"2","parameterNumber":2,"parameterNumberName":"U-component_of_CURRENTS"},"data":[0,0,0,0,0,0,0,0,0,0,0,0,0,0,0,0,0,0,0,0,0,0,0,0,0,0,0,0,0,0,0,0,0,0,0,0,0,0,0,0,0,0,0,0,0,0,0,0,0,0,0,0,0,0,0,0,0,0,0.2705,0.2705,0,0.2736,0.2736,0.2736,0.2733,0.2733,0.2732,0.2732,0.2733,0.2734,0.2734,0,0,0,0,0,0,0,0,0,0,0,0,0,0.2653,0.2654,0.2705,0.2705,0.2706,0.2736,0.2736,0.2736,0.2733,0.2733,0.2732,0.2732,0.2733,0.2734,0.2734,0,0,0,0,0,0,0,0,0,0,0,0,0,0.2676,0.2654,0.2704,0.271,0.2711,0.2736,0.2736,0.2736,0.2733,0.2733,0.2732,0.2732,0.2733,0.2734,0.2734,0.2743,0,0,0.2735,0.2735,0,0,0,0,0,0,0,0,0.2675,0.2678,0.2709,0.271,0.2711,0.2733,0.2718,0.2738,0.2733,0.2722,0.2732,0.2732,0.2733,0.2733,0.2736,0.2743,0.2743,0.2735,0.2735,0.2735,0.2736,0,0,0,0,0,0,0,0.2673,0.2677,0.2714,0.2709,0.2711,0.2715,0.2717,0.2722,0.2726,0.2723,0.2723,0.2731,0.2732,0.2736,0.2736,0.2743,0.2735,0.2735,0.2736,0.2736,0.2789,0.279,0,0,0,0,0,0,0.2675,0.2675,0.2713,0.2715,0.2695,0.2716,0.2719,0.2724,0.2726,0.2728,0.2732,0.2731,0.2735,0.2735,0.2736,0.2772,0.2735,0.2736,0.2736,0.2788,0.279,0.2791,0,0,0,0,0,0,0.2674,0.2678,0.2712,0.2698,0.2703,0.2718,0.2723,0.2725,0.2735,0.2734,0.2734,0.2742,0.2735,0.2735,0.2754,0.2771,0.2736,0.2736,0.2787,0.2789,0.279,0.2827,0,0,0,0,0,0,0.2672,0.2677,0.2683,0.2698,0.2704,0.2734,0.2724,0.2725,0.2742,0.2741,0.2743,0.2742,0.2735,0.2753,0.2754,0.277,0.2737,0.2785,0.2788,0.279,0.2824,0.283,0.2835,0,0,0,0,0,0.267,0.2678,0.2683,0.2688,0.2711,0.2735,0.2738,0.2745,0.2743,0.2752,0.2757,0.2742,0.2768,0.2755,0.2755,0.2772,0.2784,0.2787,0.279,0.2822,0.2829,0.2835,0,0,0,0,0,0,0.2657,0.2679,0.2685,0.2698,0.272,0.2735,0.2747,0.2752,0.2763,0.2764,0.2758,0.2758,0.2784,0.2775,0.276,0.2796,0.2774,0.2777,0.2799,0.2805,0.281,0.2823,0.2737,0,0,0,0,0,0.2658,0.2671,0.2694,0.2706,0.2719,0.2735,0.2746,0.2754,0.2767,0.2772,0.2774,0.278,0.2795,0.2797,0.2808,0.2823,0.2831,0.2835,0.2841,0.2845,0.2858,0.288,0.2888,0.28,0.28,0.28,0,0,0.2655,0.2672,0.2678,0.2705,0.2721,0.2745,0.274,0.2764,0.2784,0.277,0.2795,0.2802,0.2806,0.2829,0.2838,0.2822,0.2877,0.2848,0.2852,0.2862,0.2884,0.2893,0.29,0.2802,0.2801,0.2801,0,0,0.2658,0.2674,0.2685,0.2709,0.2741,0.2757,0.2767,0.2791,0.2801,0.2826,0.2828,0.2849,0.2858,0.2871,0.2876,0.2918,0.291,0.2918,0.2946,0.2968,0.2975,0.2982,0.3013,0.3022,0.2912,0.2912,0.2912,0,0.2656,0.2672,0.2693,0.2717,0.2737,0.2765,0.2785,0.2807,0.2834,0.2846,0.2838,0.2879,0.2881,0.2918,0.2934,0.293,0.2943,0.2919,0.2974,0.2981,0.2987,0.3017,0.3027,0.2914,0.2914,0.2914,0.2914,0,0.2668,0.2687,0.27,0.2738,0.2764,0.2788,0.2825,0.2849,0.2863,0.2882,0.2922,0.2934,0.2955,0.2962,0.296,0.3009,0.3006,0.2983,0.2956,0.2998,0.3027,0.3037,0.2917,0.2917,0.2916,0.2915,0,0,0.2648,0.2696,0.2701,0.2717,0.2776,0.2794,0.284,0.288,0.2917,0.2937,0.2978,0.3005,0.3015,0.3025,0.303,0.3052,0.3109,0.3038,0.3039,0.3067,0.3169,0.3164,0.3173,0.3092,0.3094,0.3095,0.3176,0,0.2651,0.2683,0.2712,0.2749,0.2771,0.2814,0.2857,0.2901,0.2943,0.2994,0.3014,0.3062,0.3039,0.3063,0.3079,0.3113,0.3134,0.309,0.3128,0.313,0.3116,0.3183,0.294,0.2992,0.3185,0.3186,0.3187,0,0.2652,0.2675,0.2702,0.2753,0.2767,0.2799,0.287,0.2914,0.2997,0.3034,0.3081,0.3111,0.3166,0.3135,0.3196,0.3169,0.3175,0.3188,0.3191,0.318,0.3141,0.298,0.3001,0.3203,0.3201,0.32,0.3199,0,0.262,0.2667,0.2683,0.2703,0.277,0.279,0.2833,0.2919,0.2969,0.3074,0.3121,0.3182,0.3224,0.3244,0.3269,0.324,0.3334,0.3289,0.3288,0.3287,0.3087,0.3067,0.3325,0.3325,0.3325,0.3325,0.3324,0,0.2611,0.2624,0.2667,0.268,0.2711,0.277,0.2828,0.2891,0.2995,0.3056,0.3136,0.32,0.3253,0.3305,0.3308,0.3342,0.3359,0.332,0.3315,0.3095,0.3076,0.3255,0.3246,0.3328,0.3327,0.3326,0.3326,0,0.2573,0.2603,0.2621,0.2677,0.2696,0.272,0.2813,0.2859,0.2972,0.3059,0.3096,0.323,0.3316,0.3363,0.3424,0.3396,0.3429,0.3425,0.3179,0.3145,0.3357,0.3349,0.3444,0.3444,0.3445,0.3445,0.3446,0,0.2556,0.2561,0.2603,0.261,0.2632,0.268,0.2714,0.2833,0.2891,0.3064,0.3096,0.3237,0.3322,0.3439,0.3422,0.3453,0.3472,0.3236,0.3139,0.3388,0.3373,0.3364,0.3356,0.2884,0.288,0.2877,0.2874,0,0.2518,0.2529,0.2541,0.2558,0.258,0.261,0.2672,0.2717,0.2853,0.2949,0.3082,0.3182,0.3307,0.3265,0.3322,0.3285,0.3219,0.3171,0.3484,0.2908,0.2871,0.2854,0.2861,0.2843,0.2846,0.2848,0.285,0.2851,0.248,0.2471,0.2483,0.2491,0.2511,0.2523,0.2528,0.2604,0.2692,0.2782,0.2953,0.3007,0.3085,0.3069,0.2992,0.2913,0.3127,0.2979,0.2984,0.2994,0.2931,0.2899,0.2864,0.2867,0.287,0.2872,0.2874,0,0.2414,0.2414,0.2417,0.2412,0.2385,0.2439,0.2478,0.2449,0.2496,0.2612,0.271,0.2564,0.2597,0.2643,0.2505,0.2537,0.2436,0.2419,0.2266,0.2303,0.2335,0.223,0.1981,0.1977,0.1974,0.1971,0,0,0.2377,0.2344,0.2339,0.2278,0.2279,0.2217,0.2217,0.2197,0.2236,0.2227,0.2246,0.246,0.2601,0.2251,0.2236,0.2086,0.2151,0.1994,0.2727,0.2586,0.2612,0.2697,0.2586,0,0,0,0,0]},{"header":{"parameterUnit":"m.s-1","parameterCategory":2,"la1":30.2991,"la2":30.254,"lo1":-89.0895,"lo2":-89.0444,"dy":0.0017,"dx":0.0017,"nx":28,"ny":28,"refTime":"2024-09-27T09:00:00:Z","depth":"2","parameterNumber":3,"parameterNumberName":"V-component_of_CURRENTS"},"data":[0,0,0,0,0,0,0,0,0,0,0,0,0,0,0,0,0,0,0,0,0,0,0,0,0,0,0,0,0,0,0,0,0,0,0,0,0,0,0,0,0,0,0,0,0,0,0,0,0,0,0,0,0,0,0,0,0,0,0.0309,0.0309,0,0.0258,0.0257,0.0256,0.0215,0.0215,0.0215,0.0215,0.0138,0.0136,0.0134,0,0,0,0,0,0,0,0,0,0,0,0,0,0.0314,0.0314,0.0309,0.0309,0.0309,0.0258,0.0257,0.0256,0.0215,0.0215,0.0215,0.0215,0.0138,0.0136,0.0134,0,0,0,0,0,0,0,0,0,0,0,0,0,0.029,0.0314,0.031,0.0284,0.0281,0.0258,0.0257,0.0256,0.0216,0.0215,0.0215,0.0215,0.0139,0.0136,0.0134,0.0124,0,0,0.0125,0.0124,0,0,0,0,0,0,0,0,0.0292,0.029,0.0288,0.0285,0.0282,0.0244,0.023,0.0211,0.0216,0.0238,0.0215,0.0214,0.0173,0.0167,0.0156,0.012,0.0117,0.0125,0.0123,0.0122,0.0121,0,0,0,0,0,0,0,0.0294,0.0292,0.0287,0.0287,0.0284,0.0254,0.0251,0.0226,0.0206,0.0236,0.0234,0.0231,0.0171,0.0159,0.0154,0.0116,0.0125,0.0123,0.0121,0.012,0.0065,0.0065,0,0,0,0,0,0,0.0308,0.0294,0.0289,0.0286,0.0288,0.0255,0.0251,0.0255,0.0207,0.02,0.0231,0.0229,0.0163,0.0157,0.0151,0.015,0.0122,0.012,0.0118,0.0065,0.0065,0.0065,0,0,0,0,0,0,0.0308,0.0308,0.0291,0.0289,0.0286,0.0256,0.0261,0.0255,0.0246,0.0204,0.0196,0.023,0.0163,0.0155,0.0136,0.0146,0.0118,0.0116,0.0064,0.0065,0.0065,0.0139,0,0,0,0,0,0,0.0308,0.0308,0.0313,0.0291,0.0286,0.0289,0.0261,0.0254,0.0246,0.0243,0.02,0.0192,0.0162,0.0141,0.0134,0.0142,0.0114,0.0064,0.0065,0.0065,0.0137,0.0142,0.0147,0,0,0,0,0,0.0309,0.0326,0.0314,0.0313,0.0295,0.029,0.0285,0.026,0.0246,0.025,0.022,0.0194,0.0138,0.0139,0.0131,0.0138,0.0064,0.0064,0.0065,0.0135,0.0141,0.0147,0,0,0,0,0,0,0.0331,0.0323,0.031,0.0323,0.031,0.0284,0.0284,0.0267,0.0245,0.0242,0.0199,0.0189,0.0176,0.0146,0.0149,0.0122,0.0095,0.0094,0.0151,0.0157,0.0162,0.018,0.0111,0,0,0,0,0,0.0339,0.0348,0.0332,0.0341,0.0338,0.0311,0.0304,0.029,0.0269,0.0259,0.0229,0.0196,0.017,0.0156,0.0128,0.0117,0.0082,0.0114,0.0119,0.0124,0.0132,0.0087,0.0089,0.0067,0.0066,0.0066,0,0,0.0348,0.0345,0.0349,0.0346,0.0332,0.0342,0.0306,0.0305,0.031,0.0254,0.025,0.0214,0.0171,0.0158,0.0148,0.0135,0.0111,0.0124,0.0129,0.0135,0.0088,0.009,0.0092,0.0067,0.0067,0.0067,0,0,0.0378,0.0372,0.039,0.0387,0.0378,0.0366,0.037,0.0349,0.0336,0.0328,0.0287,0.026,0.0223,0.0193,0.0173,0.0189,0.014,0.0177,0.0218,0.0175,0.0177,0.0178,0.0136,0.0133,0.0179,0.018,0.018,0,0.0388,0.0414,0.0394,0.0412,0.0419,0.0383,0.0409,0.0391,0.0365,0.036,0.0337,0.0278,0.0241,0.0222,0.0225,0.0202,0.0168,0.0202,0.0183,0.0183,0.0183,0.014,0.0135,0.0183,0.0183,0.0182,0.0182,0,0.0434,0.0453,0.0465,0.0479,0.0482,0.0499,0.0479,0.0473,0.0452,0.0432,0.0407,0.035,0.0317,0.0296,0.0266,0.0248,0.0221,0.0196,0.0172,0.019,0.0143,0.0137,0.0188,0.0187,0.0186,0.0185,0,0,0.0461,0.0494,0.0497,0.0521,0.0524,0.0535,0.0542,0.0542,0.0553,0.0506,0.0509,0.045,0.0413,0.0387,0.0337,0.0296,0.0263,0.0252,0.0248,0.0219,0.0166,0.0157,0.0149,0.0234,0.0233,0.0232,0.0135,0,0.0504,0.0563,0.0564,0.0617,0.0648,0.0626,0.0639,0.0629,0.0612,0.0602,0.053,0.0513,0.0449,0.0435,0.0383,0.0297,0.025,0.0292,0.0146,0.0142,0.0137,0.0143,0.0149,0.0064,0.0128,0.0127,0.0127,0,0.0548,0.0587,0.0652,0.0697,0.0708,0.0729,0.0751,0.0762,0.0732,0.0717,0.0676,0.0618,0.0554,0.0496,0.0353,0.0382,0.0284,0.0208,0.0202,0.0164,0.0121,0.0054,0.005,0.0116,0.0117,0.0117,0.0118,0,0.0588,0.0647,0.0707,0.0723,0.0763,0.0782,0.0801,0.0795,0.0823,0.0792,0.0801,0.0704,0.0666,0.053,0.0372,0.0361,0.0211,0.0173,0.0068,0.0066,0.0029,0.0025,0.0069,0.007,0.007,0.007,0.007,0,0.0637,0.0683,0.0731,0.0765,0.0835,0.0837,0.0904,0.0902,0.0918,0.0962,0.0866,0.0872,0.0673,0.0562,0.0403,0.0226,0.0231,0.0078,0.0042,0.0055,0.0055,0.0066,0.0067,0.0066,0.0067,0.0068,0.0069,0,0.0668,0.07,0.0775,0.0834,0.0858,0.0907,0.0989,0.1038,0.1036,0.1088,0.1084,0.0999,0.0858,0.0651,0.0432,0.0281,0.0102,0.0035,0.0067,0.0037,-0.0027,-0.0021,-0.0097,-0.0098,-0.0099,-0.01,-0.01,0,0.069,0.0733,0.0829,0.0885,0.0917,0.0996,0.1057,0.1095,0.1161,0.1173,0.1208,0.109,0.104,0.0718,0.0415,0.0132,0.0102,-0.0046,-0.0069,-0.0015,-0.0043,-0.0036,-0.0029,-0.0096,-0.0097,-0.0097,-0.0098,0,0.0734,0.0767,0.0831,0.0951,0.1031,0.1134,0.1226,0.1301,0.1346,0.1395,0.1438,0.1398,0.1079,0.08,0.0401,0.0199,-0.0001,-0.0064,-0.0024,-0.0043,-0.0019,-0.0045,-0.0038,-0.0102,-0.0102,-0.0101,-0.0101,-0.0101,0.0762,0.0818,0.0909,0.1024,0.1124,0.1259,0.1367,0.1465,0.1588,0.1667,0.1612,0.1562,0.1207,0.0713,0.0349,-0.0039,-0.0015,-0.0148,-0.0145,-0.0142,-0.0111,-0.0089,-0.0181,-0.0181,-0.0181,-0.0181,-0.0181,0,0.0797,0.0872,0.098,0.1124,0.1244,0.1297,0.1473,0.1576,0.1734,0.1794,0.1829,0.1502,0.1165,0.0765,0.0195,-0.0138,-0.018,-0.0249,-0.0223,-0.0216,-0.021,-0.0183,-0.0272,-0.0273,-0.0274,-0.0275,0,0,0.0819,0.0923,0.0988,0.1195,0.1308,0.1487,0.1604,0.1746,0.1838,0.192,0.19,0.1794,0.1306,0.0879,0.0401,0.0077,0.0009,-0.0,0.0108,0.0202,0.0212,-0.0122,-0.0068,0,0,0,0,0]}],[{"header":{"parameterUnit":"m.s-1","parameterCategory":2,"la1":30.2991,"la2":30.254,"lo1":-89.0895,"lo2":-89.0444,"dy":0.0017,"dx":0.0017,"nx":28,"ny":28,"refTime":"2024-09-27T09:00:00:Z","depth":"4","parameterNumber":2,"parameterNumberName":"U-component_of_CURRENTS"},"data":[0,0,0,0,0,0,0,0,0,0,0,0,0,0,0,0,0,0,0,0,0,0,0,0,0,0,0,0,0,0,0,0,0,0,0,0,0,0,0,0,0,0,0,0,0,0,0,0,0,0,0,0,0,0,0,0,0,0,0.1608,0.1609,0,0.1678,0.1679,0.1679,0.1736,0.1737,0.1738,0.1739,0.1824,0.1826,0.1827,0,0,0,0,0,0,0,0,0,0,0,0,0,0.1528,0.1529,0.1608,0.1609,0.161,0.1678,0.1679,0.168,0.1736,0.1737,0.1738,0.1739,0.1824,0.1825,0.1827,0,0,0,0,0,0,0,0,0,0,0,0,0,0.1575,0.1529,0.1608,0.1648,0.1652,0.1678,0.1679,0.168,0.1736,0.1737,0.1738,0.1739,0.1823,0.1825,0.1828,0.1819,0,0,0.1835,0.1836,0,0,0,0,0,0,0,0,0.1572,0.1577,0.1641,0.1645,0.165,0.1702,0.1682,0.1728,0.1736,0.1702,0.1739,0.174,0.1785,0.1791,0.1798,0.1823,0.1826,0.1835,0.1836,0.1837,0.1838,0,0,0,0,0,0,0,0.1569,0.1575,0.1633,0.1642,0.1648,0.1665,0.1672,0.1691,0.1735,0.1705,0.171,0.1721,0.1788,0.1796,0.1801,0.1828,0.1835,0.1837,0.1838,0.1839,0.1963,0.1965,0,0,0,0,0,0,0.1563,0.1571,0.1631,0.1636,0.1616,0.1665,0.1674,0.1682,0.1734,0.1744,0.172,0.1723,0.1791,0.1798,0.1804,0.1897,0.1837,0.184,0.1841,0.1961,0.1963,0.1965,0,0,0,0,0,0,0.1561,0.1567,0.1628,0.1607,0.1616,0.1665,0.1674,0.1683,0.1729,0.1746,0.1755,0.1762,0.1792,0.18,0.1858,0.1897,0.1841,0.1843,0.1959,0.1962,0.1964,0.2019,0,0,0,0,0,0,0.1558,0.1566,0.1588,0.1607,0.1617,0.1667,0.1674,0.1684,0.1733,0.1739,0.1784,0.1791,0.1794,0.1854,0.186,0.1899,0.1845,0.1956,0.196,0.1963,0.2015,0.2024,0.2031,0,0,0,0,0,0.1555,0.1572,0.1588,0.1596,0.164,0.1668,0.1676,0.1712,0.1734,0.1758,0.1795,0.1792,0.1881,0.1858,0.1864,0.1905,0.1955,0.1959,0.1963,0.2011,0.2022,0.2031,0,0,0,0,0,0,0.1551,0.1581,0.1598,0.1626,0.1658,0.1679,0.1712,0.1733,0.178,0.18,0.1813,0.1823,0.189,0.189,0.1864,0.1952,0.1918,0.1924,0.1953,0.1963,0.1971,0.1977,0.1846,0,0,0,0,0,0.1559,0.1584,0.1611,0.1639,0.1658,0.1692,0.1716,0.1742,0.1777,0.1801,0.1833,0.187,0.1904,0.1929,0.1957,0.2001,0.2003,0.2033,0.2041,0.2048,0.2059,0.2088,0.2099,0.1979,0.1979,0.1979,0,0,0.1567,0.1588,0.1604,0.1642,0.1672,0.1703,0.1711,0.1759,0.1796,0.1801,0.1875,0.1903,0.1924,0.1979,0.2008,0.1989,0.2085,0.2053,0.2059,0.2066,0.2094,0.2105,0.2115,0.1982,0.1982,0.1981,0,0,0.1581,0.1615,0.1637,0.1667,0.1718,0.1739,0.1761,0.1806,0.1842,0.1902,0.1923,0.1976,0.2026,0.205,0.2065,0.2134,0.2128,0.215,0.2194,0.2222,0.2232,0.2241,0.2261,0.2271,0.2151,0.2151,0.2151,0,0.1594,0.162,0.165,0.168,0.1712,0.1758,0.1791,0.1831,0.1894,0.1926,0.1938,0.2037,0.2057,0.212,0.215,0.2152,0.2166,0.2153,0.2232,0.224,0.2248,0.2267,0.2277,0.2154,0.2154,0.2153,0.2153,0,0.1612,0.1651,0.1671,0.1722,0.176,0.1801,0.1852,0.1906,0.1956,0.1991,0.208,0.2115,0.2171,0.219,0.2194,0.2268,0.226,0.2238,0.2203,0.2263,0.228,0.229,0.2158,0.2157,0.2156,0.2156,0,0,0.1595,0.1667,0.1679,0.1711,0.1789,0.1816,0.189,0.1956,0.2017,0.2082,0.2154,0.2221,0.2253,0.2274,0.2294,0.2325,0.2394,0.2316,0.2316,0.233,0.2463,0.2317,0.2313,0.239,0.2392,0.2394,0.2453,0,0.1605,0.1656,0.1696,0.1763,0.1795,0.1863,0.1926,0.1999,0.2071,0.2155,0.2206,0.2288,0.2281,0.2331,0.236,0.2396,0.2423,0.2381,0.241,0.2411,0.2266,0.232,0.24,0.246,0.2462,0.2464,0.2465,0,0.1603,0.164,0.1699,0.1784,0.1807,0.1864,0.1978,0.2042,0.2159,0.2221,0.2305,0.2354,0.2437,0.2416,0.2492,0.247,0.2477,0.2488,0.2489,0.2339,0.2281,0.2388,0.2482,0.2481,0.248,0.2479,0.2477,0,0.1559,0.1642,0.1689,0.1719,0.1823,0.1878,0.1949,0.2068,0.2137,0.2283,0.2349,0.244,0.2507,0.2535,0.2562,0.2544,0.2627,0.2592,0.2462,0.2452,0.2541,0.2531,0.2634,0.2634,0.2634,0.2634,0.2634,0,0.1535,0.1578,0.1681,0.1708,0.1784,0.187,0.1975,0.2063,0.2198,0.2275,0.2389,0.2454,0.2544,0.2594,0.2597,0.2558,0.2651,0.2481,0.2459,0.2564,0.2556,0.2548,0.2537,0.2636,0.2636,0.2635,0.2635,0,0.1475,0.1542,0.1602,0.1719,0.1766,0.1826,0.198,0.2045,0.2194,0.2302,0.2355,0.2494,0.2561,0.2616,0.2673,0.2588,0.2578,0.2537,0.2662,0.2644,0.2377,0.2369,0.2396,0.2391,0.2387,0.2384,0.2381,0,0.1443,0.1469,0.1596,0.1637,0.1699,0.1805,0.1871,0.2031,0.2099,0.2295,0.2325,0.2459,0.2526,0.249,0.2559,0.2554,0.2517,0.2489,0.2416,0.2378,0.2355,0.2352,0.2349,0.2375,0.2374,0.2373,0.2372,0,0.1379,0.144,0.1487,0.1572,0.1649,0.172,0.1833,0.1873,0.2043,0.2188,0.2251,0.2291,0.236,0.2396,0.2414,0.24,0.2496,0.2447,0.2454,0.2386,0.2352,0.2333,0.2335,0.2358,0.236,0.2361,0.2362,0,0.1335,0.135,0.1422,0.1484,0.1571,0.1611,0.1685,0.1761,0.1849,0.206,0.2072,0.2209,0.2338,0.2317,0.2331,0.2314,0.227,0.2178,0.2199,0.2215,0.2125,0.2054,0.1957,0,0,0,0,0,0.1278,0.128,0.1327,0.1382,0.1461,0.1514,0.1641,0.1718,0.1879,0.1872,0.1972,0.2027,0.2066,0.2139,0.2084,0.2243,0.2274,0.2167,0.2178,0.2282,0.2298,0.2208,0,0,0,0,0,0,0.1237,0.1274,0.1285,0.1283,0.1302,0.1374,0.145,0.1558,0.1572,0.1741,0.1778,0.1898,0.197,0.2074,0.2042,0.2061,0.2024,0.2254,0.2248,0.2273,0.2288,0.23,0.2213,0,0,0,0,0]},{"header":{"parameterUnit":"m.s-1","parameterCategory":2,"la1":30.2991,"la2":30.254,"lo1":-89.0895,"lo2":-89.0444,"dy":0.0017,"dx":0.0017,"nx":28,"ny":28,"refTime":"2024-09-27T09:00:00:Z","depth":"4","parameterNumber":3,"parameterNumberName":"V-component_of_CURRENTS"},"data":[0,0,0,0,0,0,0,0,0,0,0,0,0,0,0,0,0,0,0,0,0,0,0,0,0,0,0,0,0,0,0,0,0,0,0,0,0,0,0,0,0,0,0,0,0,0,0,0,0,0,0,0,0,0,0,0,0,0,0.0222,0.0222,0,0.019,0.019,0.0189,0.0168,0.0168,0.0168,0.0168,0.0114,0.0113,0.0112,0,0,0,0,0,0,0,0,0,0,0,0,0,0.0226,0.0227,0.0222,0.0222,0.0222,0.019,0.019,0.0189,0.0168,0.0168,0.0168,0.0168,0.0115,0.0113,0.0111,0,0,0,0,0,0,0,0,0,0,0,0,0,0.0211,0.0227,0.0222,0.0208,0.0207,0.019,0.019,0.0189,0.0168,0.0168,0.0168,0.0168,0.0115,0.0113,0.0111,0.0099,0,0,0.0105,0.0104,0,0,0,0,0,0,0,0,0.0212,0.0211,0.0211,0.0209,0.0208,0.0184,0.0171,0.0158,0.0168,0.0182,0.0168,0.0168,0.0136,0.0133,0.0125,0.0097,0.0094,0.0105,0.0103,0.0102,0.0102,0,0,0,0,0,0,0,0.0214,0.0212,0.0208,0.021,0.0208,0.019,0.0188,0.0168,0.0158,0.0181,0.0179,0.0177,0.0135,0.0127,0.0124,0.0093,0.0105,0.0103,0.0101,0.0101,0.0053,0.0053,0,0,0,0,0,0,0.0222,0.0214,0.0209,0.0207,0.0211,0.019,0.0188,0.0191,0.0159,0.0155,0.0178,0.0177,0.0131,0.0126,0.0122,0.012,0.0102,0.01,0.0099,0.0053,0.0053,0.0053,0,0,0,0,0,0,0.0222,0.0222,0.0211,0.021,0.0208,0.0191,0.0194,0.019,0.0188,0.0157,0.0152,0.018,0.0131,0.0125,0.0112,0.0117,0.0099,0.0098,0.0053,0.0053,0.0053,0.0107,0,0,0,0,0,0,0.0222,0.0222,0.0227,0.0211,0.0208,0.0209,0.0194,0.019,0.0187,0.0186,0.0157,0.0152,0.013,0.0115,0.011,0.0114,0.0096,0.0053,0.0053,0.0053,0.0105,0.0109,0.0112,0,0,0,0,0,0.0223,0.0234,0.0228,0.0227,0.0216,0.021,0.0207,0.0193,0.0187,0.019,0.0171,0.0153,0.0111,0.0114,0.0107,0.0111,0.0053,0.0053,0.0053,0.0104,0.0108,0.0112,0,0,0,0,0,0,0.0237,0.0232,0.0225,0.0234,0.0225,0.0207,0.0209,0.0199,0.0186,0.0186,0.0156,0.0149,0.0138,0.0116,0.012,0.0096,0.0077,0.0076,0.0118,0.0122,0.0126,0.0139,0.0094,0,0,0,0,0,0.0243,0.0251,0.0239,0.0245,0.0244,0.0227,0.0223,0.0216,0.0202,0.0196,0.0176,0.0152,0.0131,0.0122,0.01,0.009,0.0059,0.0086,0.0089,0.0092,0.0098,0.0055,0.0055,0.0053,0.0053,0.0053,0,0,0.0249,0.0248,0.0252,0.0249,0.0241,0.0248,0.0225,0.0226,0.023,0.0192,0.0191,0.0165,0.0131,0.0119,0.0112,0.0104,0.0076,0.0092,0.0095,0.0099,0.0055,0.0055,0.0055,0.0053,0.0053,0.0053,0,0,0.0268,0.0266,0.028,0.0278,0.0274,0.0266,0.027,0.0257,0.025,0.0245,0.0216,0.0195,0.0168,0.0143,0.0126,0.0134,0.0096,0.0126,0.0155,0.0114,0.0114,0.0113,0.0075,0.0071,0.0128,0.0128,0.0128,0,0.0276,0.0294,0.0282,0.0294,0.0301,0.0279,0.0298,0.0285,0.0269,0.0265,0.0254,0.0207,0.0179,0.0157,0.016,0.0142,0.0114,0.0146,0.0119,0.0118,0.0117,0.0077,0.0072,0.0131,0.013,0.013,0.013,0,0.0304,0.0321,0.033,0.0342,0.0345,0.0359,0.0345,0.0342,0.0332,0.0318,0.0298,0.0254,0.0229,0.0211,0.019,0.0167,0.0148,0.0129,0.0112,0.012,0.0078,0.0071,0.0134,0.0133,0.0133,0.0132,0,0,0.0318,0.0347,0.0351,0.0371,0.0377,0.0385,0.039,0.0391,0.0399,0.0366,0.0367,0.0319,0.0295,0.0274,0.0235,0.0196,0.0161,0.0166,0.0162,0.0135,0.0071,0.0061,0.0052,0.0138,0.0138,0.0137,0.0045,0,0.0347,0.0391,0.0395,0.0438,0.0461,0.045,0.0459,0.0453,0.0442,0.0434,0.0377,0.0364,0.0318,0.031,0.0262,0.0189,0.0146,0.0187,0.0061,0.0057,0.0053,0.0045,0.0134,0.004,0.0039,0.0037,0.0037,0,0.0374,0.0404,0.0455,0.0496,0.0505,0.0525,0.0545,0.0553,0.0529,0.0519,0.0487,0.0443,0.0385,0.0345,0.0218,0.0248,0.0168,0.0103,0.0097,0.0066,0.0035,0.0028,0.0024,0.0025,0.0026,0.0027,0.0028,0,0.0397,0.0446,0.0495,0.0509,0.0545,0.0566,0.0585,0.0581,0.0602,0.0578,0.0584,0.0501,0.0469,0.0355,0.0223,0.0221,0.0077,0.0055,-0.0033,-0.0035,-0.0022,-0.0021,-0.0037,-0.0037,-0.0037,-0.0036,-0.0036,0,0.0426,0.0465,0.0514,0.0542,0.0602,0.0609,0.0666,0.0666,0.0679,0.0707,0.0637,0.0626,0.0471,0.037,0.024,0.0086,0.0087,-0.003,-0.006,0.0002,0.0008,-0.0027,-0.0025,-0.004,-0.0039,-0.0038,-0.0038,0,0.044,0.0472,0.0534,0.0592,0.0617,0.0661,0.0736,0.077,0.0775,0.0807,0.0805,0.0721,0.0588,0.0422,0.0232,0.012,-0.0033,-0.009,-0.0005,-0.003,-0.0124,-0.0118,-0.0198,-0.02,-0.0201,-0.0201,-0.0202,0,0.0451,0.0485,0.0576,0.0624,0.0658,0.073,0.078,0.0817,0.0859,0.0861,0.0874,0.0766,0.0685,0.0419,0.0234,-0.0019,-0.0057,-0.014,-0.014,-0.0119,-0.0141,-0.0133,-0.0126,-0.0204,-0.0204,-0.0204,-0.0204,0,0.0471,0.0506,0.0558,0.0661,0.0733,0.0817,0.0893,0.0932,0.0967,0.097,0.0935,0.0796,0.0643,0.0427,0.0231,0.0048,-0.0089,-0.0151,-0.0151,-0.0151,-0.0127,-0.0146,-0.0137,-0.0208,-0.0207,-0.0207,-0.0207,0,0.0484,0.0524,0.06,0.0691,0.0784,0.0874,0.0918,0.0967,0.1007,0.1006,0.0989,0.0826,0.0731,0.0461,0.0279,0.0099,0.0046,-0.0019,-0.0027,-0.0025,0.0047,0.0105,0.007,0,0,0,0,0,0.049,0.0541,0.0627,0.0729,0.0823,0.0888,0.0977,0.1011,0.1043,0.103,0.1017,0.0875,0.0609,0.0494,0.0313,0.0241,0.0001,0.0019,-0.008,-0.0226,-0.0222,-0.0168,0,0,0,0,0,0,0.0496,0.0569,0.062,0.0743,0.0823,0.0933,0.0997,0.1024,0.1021,0.1022,0.089,0.0823,0.0568,0.0718,0.0309,0.0253,0.0162,-0.0103,-0.0107,-0.0228,-0.0225,-0.0222,-0.0165,0,0,0,0,0]}]]